[[{"header":{"parameterUnit":"m.s-1","parameterCategory":1,"la1":30.2991,"la2":30.254,"lo1":-89.0895,"lo2":-89.0444,"dy":0.0017,"dx":0.0017,"nx":28,"ny":28,"refTime":"2023-07-30T03:00:00:Z","depth":0,"parameterNumber":2,"parameterNumberName":"U-component_of_WINDS"},"data":[0,0,0,0,0,0,0,0,0,0,0,0,0,0,0,0,0,0,0,0,0,0,0,0,0,0,0,0,0,0,0,0,0,0,0,0,0,0,0,0,0,0,0,0,0,0,0,0,0,0,0,0,0,0,0,0,0,0,0.9779,0.9781,0,0.9944,0.9945,0.9947,1.0011,1.001,1.001,1.0009,1.018,1.0185,1.019,0,0,0,0,0,0,0,0,0,0,0,0,0,0.9519,0.9524,0.9779,0.9781,0.9783,0.9943,0.9946,0.9948,1.0011,1.001,1.001,1.0009,1.0178,1.0184,1.019,0,0,0,0,0,0,0,0,0,0,0,0,0,0.9653,0.9525,0.9778,0.9834,0.984,0.9943,0.9946,0.9948,1.0011,1.001,1.001,1.0009,1.0176,1.0183,1.0191,1.0251,0,0,1.0214,1.0217,0,0,0,0,0,0,0,0,0.9645,0.9662,0.9823,0.983,0.9838,0.9956,0.9917,1.005,1.0011,0.9946,1.0009,1.0009,1.0106,1.0119,1.0152,1.0259,1.0267,1.0214,1.0219,1.0222,1.0224,0,0,0,0,0,0,0,0.9636,0.9655,0.9844,0.9826,0.9834,0.985,0.9868,0.9942,1.0028,0.9952,0.9957,0.9975,1.011,1.0144,1.0156,1.0269,1.0214,1.0221,1.0225,1.0228,1.0434,1.0434,0,0,0,0,0,0,0.9617,0.9647,0.9839,0.9849,0.9737,0.9855,0.9876,0.9919,1.0027,1.0043,0.9976,0.9978,1.0132,1.0147,1.0162,1.024,1.0222,1.0229,1.0233,1.0433,1.0434,1.0435,0,0,0,0,0,0,0.9611,0.9634,0.9832,0.975,0.9776,0.9861,0.9908,0.9922,0.9957,1.0046,1.0061,0.9995,1.0132,1.0152,1.0228,1.0247,1.0232,1.0239,1.0431,1.0433,1.0434,1.0395,0,0,0,0,0,0,0.9604,0.9631,0.9655,0.975,0.978,0.9895,0.9909,0.9926,0.9969,0.9974,1.0068,1.0083,1.0133,1.0217,1.0236,1.0257,1.0245,1.043,1.0432,1.0434,1.0395,1.0395,1.0395,0,0,0,0,0,0.9594,0.9638,0.9656,0.9678,0.9812,0.9896,0.9913,0.9969,0.9971,0.9995,1.0052,1.008,1.0241,1.0224,1.0246,1.0269,1.0429,1.0432,1.0434,1.0395,1.0395,1.0395,0,0,0,0,0,0,0.9544,0.9651,0.9672,0.9748,0.9812,0.9906,0.9939,0.9968,1.0033,1.0034,1.0102,1.0122,1.0193,1.0239,1.0218,1.0333,1.0337,1.0344,1.0301,1.0301,1.0301,1.0289,1.0251,0,0,0,0,0,0.9541,0.9601,0.9691,0.9749,0.978,0.9854,0.9893,0.993,1.0,1.0028,1.009,1.0157,1.0222,1.0264,1.033,1.0402,1.0423,1.0429,1.0429,1.0428,1.0433,1.0474,1.0478,1.0442,1.0442,1.0442,0,0,0.9537,0.9603,0.9637,0.9741,0.9795,0.9855,0.9877,0.9939,0.9985,1.0037,1.0113,1.0161,1.024,1.0314,1.035,1.0355,1.0448,1.0431,1.043,1.0436,1.0477,1.048,1.0483,1.0443,1.0443,1.0443,0,0,0.956,0.9616,0.967,0.9724,0.9805,0.9854,0.9867,0.9957,0.999,1.0067,1.0108,1.0162,1.0274,1.0329,1.0371,1.0413,1.0441,1.0432,1.0432,1.0471,1.0474,1.0477,1.0492,1.0496,1.0437,1.0437,1.0437,0,0.9545,0.9637,0.9695,0.9755,0.98,0.9849,0.9904,0.9954,1.0052,1.0082,1.0085,1.0226,1.0283,1.037,1.038,1.0413,1.0429,1.0422,1.0469,1.0472,1.0476,1.0491,1.0496,1.0435,1.0436,1.0436,1.0436,0,0.9614,0.9677,0.9711,0.9804,0.9852,0.991,0.9976,1.0018,1.0051,1.0099,1.0176,1.0246,1.0325,1.0349,1.0382,1.0441,1.0441,1.0456,1.0461,1.0477,1.0492,1.0498,1.0433,1.0434,1.0434,1.0435,0,0,0.9611,0.9734,0.9746,0.9789,0.9882,0.9931,0.9991,1.0068,1.0103,1.0169,1.022,1.0313,1.0327,1.0375,1.0414,1.0448,1.0477,1.0459,1.0462,1.046,1.0545,1.0534,1.0539,1.0496,1.0497,1.0498,1.0539,0,0.9646,0.9755,0.9808,0.9893,0.9952,0.9999,1.0051,1.0113,1.0159,1.0216,1.0267,1.0331,1.0345,1.0374,1.041,1.0465,1.0495,1.0463,1.0544,1.0547,1.0523,1.0547,1.0536,1.0571,1.0545,1.0546,1.0547,0,0.9702,0.9767,0.9858,0.9943,0.997,1.0015,1.009,1.0143,1.0215,1.0246,1.0299,1.0337,1.0401,1.0401,1.049,1.0468,1.0504,1.0536,1.0539,1.0549,1.0548,1.0558,1.0584,1.0589,1.0557,1.0556,1.0555,0,0.9691,0.9801,0.9869,0.9904,1.0006,1.0036,1.008,1.0151,1.0194,1.0259,1.0287,1.0359,1.0399,1.0454,1.051,1.0505,1.0594,1.0599,1.0622,1.062,1.0639,1.0637,1.067,1.0662,1.0661,1.0661,1.0661,0,0.9725,0.9778,0.9865,0.9907,0.9968,1.0029,1.0088,1.0135,1.0198,1.025,1.0295,1.0343,1.0414,1.0471,1.0516,1.0583,1.06,1.0627,1.0638,1.0623,1.062,1.0648,1.0647,1.0663,1.0663,1.0662,1.0662,0,0.9722,0.9783,0.986,0.9949,0.9973,1.0014,1.0091,1.0133,1.0181,1.0246,1.0265,1.034,1.0409,1.047,1.0562,1.0592,1.0661,1.0675,1.0636,1.0642,1.0661,1.0659,1.0715,1.0725,1.0708,1.0708,1.0708,0,0.974,0.9783,0.9876,0.9914,0.9956,1.0017,1.006,1.0121,1.0165,1.0249,1.0281,1.0353,1.0414,1.0522,1.0585,1.0656,1.0672,1.0686,1.0683,1.0666,1.0672,1.0669,1.0673,1.0686,1.0686,1.0686,1.0686,0,0.9766,0.9793,0.9854,0.9926,0.9976,1.0036,1.0096,1.0125,1.0197,1.0243,1.0314,1.0361,1.0454,1.0525,1.0602,1.0647,1.0679,1.0686,1.0695,1.068,1.0656,1.0669,1.0635,1.0685,1.0685,1.0685,1.0685,1.0685,0.9774,0.9814,0.9885,0.9952,1.0003,1.0059,1.0103,1.0156,1.0216,1.0296,1.0328,1.04,1.047,1.0576,1.0621,1.0678,1.0684,1.0697,1.07,1.0703,1.07,1.0647,1.0692,1.0692,1.0693,1.0693,1.0693,0,0.9802,0.985,0.991,0.9993,1.0045,1.0069,1.0137,1.0179,1.0242,1.0304,1.0363,1.0444,1.0512,1.058,1.0652,1.0685,1.0701,1.0702,1.07,1.071,1.069,1.0675,1.0688,1.0688,1.0688,1.0688,1.0688,1.0688,0.9822,0.989,0.9926,1.002,1.0068,1.0138,1.0175,1.0226,1.0276,1.0364,1.0421,1.0464,1.0529,1.0606,1.067,1.0688,1.0713,1.071,1.0732,1.0712,1.0712,1.0711,1.0698,1.0714,1.0714,1.0747,1.0747,1.0747]},{"header":{"parameterUnit":"m.s-1","parameterCategory":1,"la1":30.2991,"la2":30.254,"lo1":-89.0895,"lo2":-89.0444,"dy":0.0017,"dx":0.0017,"nx":28,"ny":28,"refTime":"2023-07-30T03:00:00:Z","depth":0,"parameterNumber":3,"parameterNumberName":"V-component_of_WINDS"},"data":[0,0,0,0,0,0,0,0,0,0,0,0,0,0,0,0,0,0,0,0,0,0,0,0,0,0,0,0,0,0,0,0,0,0,0,0,0,0,0,0,0,0,0,0,0,0,0,0,0,0,0,0,0,0,0,0,0,0,3.4382,3.4381,0,3.433,3.4329,3.4328,3.4345,3.4347,3.4348,3.4349,3.4287,3.4284,3.4282,0,0,0,0,0,0,0,0,0,0,0,0,0,3.4489,3.4487,3.4382,3.4381,3.4381,3.433,3.4329,3.4328,3.4345,3.4347,3.4348,3.4349,3.4288,3.4285,3.4282,0,0,0,0,0,0,0,0,0,0,0,0,0,3.444,3.4486,3.4382,3.4383,3.4383,3.433,3.4329,3.4328,3.4345,3.4347,3.4348,3.435,3.4289,3.4285,3.4281,3.4221,0,0,3.4269,3.4267,0,0,0,0,0,0,0,0,3.4443,3.4436,3.4384,3.4383,3.4382,3.4346,3.4344,3.4292,3.4345,3.4359,3.4349,3.4351,3.4305,3.4299,3.4286,3.4218,3.4216,3.4268,3.4266,3.4264,3.4263,0,0,0,0,0,0,0,3.4446,3.4438,3.4361,3.4383,3.4382,3.4384,3.4379,3.4334,3.4322,3.4358,3.4359,3.4353,3.4305,3.429,3.4284,3.4215,3.4268,3.4265,3.4262,3.4261,3.4095,3.4093,0,0,0,0,0,0,3.4451,3.4441,3.4363,3.4359,3.4418,3.438,3.4375,3.4356,3.4323,3.432,3.4352,3.4354,3.4296,3.4289,3.4282,3.4209,3.4264,3.426,3.4258,3.4097,3.4095,3.4092,0,0,0,0,0,0,3.4453,3.4444,3.4365,3.44,3.4391,3.4377,3.4355,3.4354,3.4339,3.4319,3.4316,3.4339,3.4297,3.4288,3.4237,3.4208,3.4258,3.4255,3.4099,3.4096,3.4093,3.4064,0,0,0,0,0,0,3.4456,3.4444,3.4423,3.44,3.4389,3.4322,3.4354,3.4352,3.4333,3.4335,3.4306,3.4302,3.4297,3.4243,3.4233,3.4203,3.4252,3.4102,3.4098,3.4094,3.4067,3.406,3.4054,0,0,0,0,0,3.446,3.4415,3.4422,3.4413,3.4362,3.4321,3.4314,3.4311,3.433,3.4308,3.4295,3.4303,3.4213,3.4237,3.4226,3.4195,3.4103,3.4099,3.4095,3.407,3.4062,3.4055,0,0,0,0,0,0,3.4433,3.4412,3.442,3.4367,3.4346,3.4324,3.4295,3.4302,3.4273,3.4277,3.4272,3.4265,3.4213,3.4199,3.4226,3.4135,3.4161,3.4154,3.4146,3.4138,3.4131,3.4135,3.4248,0,0,0,0,0,3.4421,3.4392,3.4374,3.4329,3.4319,3.4309,3.429,3.4291,3.4267,3.4258,3.4241,3.4216,3.4182,3.4159,3.4126,3.4066,3.4059,3.4039,3.4032,3.4027,3.402,3.3986,3.3977,3.4078,3.4078,3.4078,0,0,3.4396,3.4381,3.4362,3.4323,3.4307,3.4274,3.4301,3.4265,3.4239,3.4251,3.4203,3.4189,3.4161,3.4105,3.4079,3.4091,3.3991,3.4021,3.4017,3.4014,3.3981,3.3971,3.3963,3.4075,3.4076,3.4076,0,0,3.4333,3.4319,3.428,3.4264,3.424,3.4234,3.4224,3.4202,3.4194,3.4146,3.4154,3.4122,3.4064,3.4043,3.4025,3.3955,3.3961,3.3944,3.3909,3.3876,3.3868,3.3861,3.3835,3.3825,3.3938,3.3938,3.3938,0,3.4303,3.4257,3.4258,3.4222,3.4204,3.4217,3.4175,3.4159,3.4124,3.411,3.4125,3.4052,3.4034,3.3973,3.3956,3.3941,3.3928,3.3947,3.387,3.3862,3.3856,3.3831,3.3821,3.3936,3.3936,3.3936,3.3937,0,3.4221,3.4188,3.4159,3.4129,3.4107,3.4069,3.4063,3.404,3.4043,3.4034,3.3984,3.3963,3.3926,3.3911,3.3912,3.385,3.3858,3.3871,3.3897,3.3844,3.382,3.3811,3.3933,3.3934,3.3934,3.3935,0,0,3.4138,3.4111,3.4099,3.4086,3.406,3.4034,3.3995,3.3962,3.3942,3.3918,3.3884,3.3834,3.3847,3.3826,3.3824,3.3796,3.374,3.3812,3.3811,3.3798,3.3669,3.3658,3.3647,3.3745,3.3743,3.3741,3.3671,0,3.4072,3.4007,3.4008,3.3946,3.3915,3.3927,3.3893,3.3872,3.3863,3.3833,3.3822,3.3787,3.3807,3.3795,3.3767,3.3753,3.3714,3.3758,3.371,3.3709,3.3716,3.3635,3.3624,3.3558,3.3662,3.366,3.3659,0,3.3986,3.3962,3.3899,3.3878,3.3865,3.3835,3.3804,3.3777,3.3753,3.3748,3.3726,3.3729,3.3687,3.3715,3.3656,3.3686,3.3666,3.3656,3.3654,3.3648,3.368,3.3626,3.3537,3.3527,3.3644,3.3646,3.3647,0,3.3931,3.3882,3.3838,3.3826,3.3801,3.3779,3.3767,3.3746,3.3726,3.3698,3.3685,3.3652,3.3633,3.3606,3.3599,3.3621,3.3539,3.3567,3.3532,3.3532,3.3514,3.3515,3.3419,3.3503,3.3503,3.3503,3.3504,0,3.3856,3.3816,3.3813,3.3785,3.3741,3.3741,3.3696,3.3685,3.3666,3.3635,3.3642,3.3612,3.3605,3.3573,3.3567,3.3518,3.3509,3.3503,3.3501,3.3502,3.3502,3.3488,3.3492,3.3501,3.3501,3.3502,3.3502,0,3.3786,3.3783,3.3735,3.3716,3.3711,3.3678,3.3661,3.3633,3.3626,3.3586,3.3577,3.3564,3.3527,3.3518,3.3472,3.3468,3.341,3.3413,3.3419,3.3419,3.3384,3.3387,3.3275,3.326,3.3354,3.3354,3.3353,0,3.3739,3.3709,3.3688,3.3669,3.3657,3.3626,3.3606,3.3605,3.3584,3.3555,3.353,3.3495,3.3466,3.3405,3.339,3.3355,3.3357,3.332,3.3351,3.3352,3.3355,3.3356,3.3353,3.3313,3.3312,3.3312,3.3311,0,3.3654,3.3654,3.3627,3.3599,3.3576,3.3554,3.3532,3.3515,3.3511,3.3486,3.345,3.3428,3.3383,3.3346,3.3311,3.3296,3.3301,3.3302,3.3291,3.3291,3.3295,3.3291,3.3401,3.3304,3.3304,3.3305,3.3305,3.3306,3.3592,3.3566,3.3548,3.3518,3.3502,3.3482,3.3455,3.3446,3.3416,3.3382,3.3382,3.3342,3.3317,3.3272,3.3255,3.3221,3.3232,3.3218,3.3214,3.321,3.3207,3.3301,3.3215,3.3215,3.3215,3.3215,3.3216,0,3.3507,3.3497,3.3469,3.344,3.3415,3.3427,3.3403,3.3381,3.3347,3.3325,3.3298,3.3255,3.322,3.3203,3.3167,3.3144,3.3145,3.3134,3.3135,3.3131,3.3199,3.3211,3.3134,3.3134,3.3134,3.3134,3.3134,3.3134,3.346,3.3417,3.3414,3.3362,3.3351,3.3314,3.33,3.328,3.3264,3.3217,3.3189,3.3179,3.3159,3.3122,3.3089,3.3085,3.3071,3.3058,3.3055,3.3118,3.3127,3.3135,3.3146,3.3055,3.3055,3.299,3.2989,3.2989]}]]